Showing default

ECHOSTAR 18, 41592

Orbit data source: Space-Track

ECHOSTAR 18, 41592 is a payload satellite owned by Dish Network (US) in GEO that was launched on Sat, 18 Jun 2016 UTC via an ARIANE 5ECA launch vehicle from the French Guiana (FRGUI). Payload-class satellites include a variety of spacecraft equipped with specific instruments for various scientific and technological missions. These include communications satellites like Starlink; space stations such as the ISS; scientific satellites like the Hubble; Earth observation satellites from companies like Planet Labs, Umbra, and HawkEye 360; GPS; miniature CubeSats for education and research; and military/defense satellites.

Loading next visibility...
Identifier
41592, 2016-039B
Orbit
GEO
Country
Flag of USUS
Related business
Manufacturer
SS/Loral (MDA)
Mission
Operational Commercial Communications
Bus & Motor
SSL-1300, R-4D-15-300
Mass
6,300 kg wet, ~3,500 kg dry
Launch date (UTC)
2016-06-18 (10 years ago)
Launch vehicle
ARIANE 5ECA
Launch site
French Guiana (FRGUI)
Object type
Payload
Rocket body
Debris
Shape & HBR
Box + 2 Pan, 15.5 m
Radar Cross Section
40.765 m², Large (>1 m²)

Expand to show TLE details & history
Last TLE update: 5 hours ago

TLE from 5 hours ago
0 ECHOSTAR 18
1 41592U 16039B   26036.18729615 -.00000285  00000-0  00000+0 0  9991
2 41592   0.0149  89.5748 0001624 220.5078 191.2837  1.00275334 35302
Epoch: 2026-02-05T04:29Z
TLE epoch observation values (Epoch: 2026-02-05T04:29:42.387Z)
Latitude
0.02704°
Longitude
-61.37249°
Altitude
35,791.833 km
Speed
3.074 km/s
True Right ascension
09h 25m 35s
True Declination
0° 01' 37"
Sunlit
Object was in daylight at epoch
Visualization orbit readout
Latitude
Unknown
Longitude
Unknown
Altitude
Unknown
Speed
Unknown
Apparent Right ascension
Unknown
Apparent Declination
Unknown
Sunlit
N/A
Visualization observer readout
Local Sidereal Time
11:54:50
Azimuth
Unknown
Elevation
Unknown
Doppler factor
Unknown
Orbital elements
Apogee altitude
35,793.518 km
Perigee altitude
35,779.823 km
Semi-major axis
42,164.807 km
Eccentricity
0.00016
Inclination
0.0149°
RAAN
89.5748°
Arg. of periapsis
220.5078°
True anomaly
191.28006°
Mean anomaly
191.2837°
Eccentric anomaly
191.28188°
Mean motion
0.25068 °/min
Orbital period
1,436.1 mins
BSTAR
0
Loading maneuver chart data...
Computing Atmospheric mass density...
Loading historical data...
Loading historical data...
Loading historical data...
Loading historical data...
Loading historical data...
Loading historical data...
Loading historical data...
Other satellites on launch #39 in the year 2016 (2016-06-18 UTC)

Documentation

Showing up to 5 results
|